[[{"header":{"parameterUnit":"m.s-1","parameterCategory":1,"la1":30.2991,"la2":30.254,"lo1":-89.0895,"lo2":-89.0444,"dy":0.0017,"dx":0.0017,"nx":28,"ny":28,"refTime":"2023-07-29T09:00:00:Z","depth":0,"parameterNumber":2,"parameterNumberName":"U-component_of_WINDS"},"data":[0,0,0,0,0,0,0,0,0,0,0,0,0,0,0,0,0,0,0,0,0,0,0,0,0,0,0,0,0,0,0,0,0,0,0,0,0,0,0,0,0,0,0,0,0,0,0,0,0,0,0,0,0,0,0,0,0,0,1.495,1.4952,0,1.5115,1.5117,1.5119,1.5184,1.5184,1.5183,1.5183,1.5354,1.5359,1.5363,0,0,0,0,0,0,0,0,0,0,0,0,0,1.469,1.4695,1.495,1.4952,1.4954,1.5115,1.5117,1.512,1.5184,1.5184,1.5183,1.5183,1.5352,1.5358,1.5364,0,0,0,0,0,0,0,0,0,0,0,0,0,1.4824,1.4696,1.4949,1.5005,1.5012,1.5115,1.5117,1.512,1.5184,1.5184,1.5183,1.5182,1.535,1.5357,1.5365,1.5424,0,0,1.5387,1.5391,0,0,0,0,0,0,0,0,1.4817,1.4834,1.4995,1.5002,1.5009,1.5128,1.5089,1.5222,1.5184,1.5119,1.5183,1.5182,1.5279,1.5293,1.5325,1.5432,1.5439,1.5388,1.5393,1.5396,1.5398,0,0,0,0,0,0,0,1.4807,1.4827,1.5015,1.4997,1.5006,1.5023,1.5041,1.5114,1.5201,1.5125,1.513,1.5148,1.5283,1.5318,1.533,1.5442,1.5388,1.5394,1.5399,1.5402,1.5606,1.5606,0,0,0,0,0,0,1.4788,1.4819,1.501,1.502,1.4909,1.5028,1.5048,1.5091,1.52,1.5216,1.5149,1.5151,1.5305,1.5321,1.5336,1.5412,1.5396,1.5403,1.5407,1.5605,1.5606,1.5607,0,0,0,0,0,0,1.4783,1.4805,1.5003,1.4921,1.4948,1.5033,1.508,1.5095,1.5129,1.5219,1.5234,1.5168,1.5305,1.5325,1.5401,1.5419,1.5406,1.5413,1.5604,1.5605,1.5606,1.5565,0,0,0,0,0,0,1.4775,1.4802,1.4825,1.4921,1.4952,1.5066,1.5081,1.5098,1.5142,1.5146,1.5241,1.5256,1.5306,1.539,1.5409,1.5429,1.5419,1.5602,1.5604,1.5606,1.5566,1.5565,1.5565,0,0,0,0,0,1.4765,1.4808,1.4826,1.4849,1.4982,1.5066,1.5084,1.5141,1.5143,1.5167,1.5224,1.5253,1.5414,1.5397,1.5419,1.5442,1.5601,1.5604,1.5606,1.5566,1.5565,1.5565,0,0,0,0,0,0,1.4712,1.4821,1.4843,1.4917,1.4982,1.5077,1.5109,1.5139,1.5205,1.5206,1.5274,1.5295,1.5365,1.5411,1.5391,1.5505,1.551,1.5517,1.5472,1.5472,1.5472,1.5459,1.5425,0,0,0,0,0,1.4709,1.4768,1.486,1.4917,1.4948,1.5023,1.5062,1.51,1.517,1.5198,1.5261,1.5328,1.5394,1.5436,1.5501,1.5573,1.5594,1.5599,1.5599,1.5598,1.5603,1.5644,1.5647,1.5614,1.5614,1.5614,0,0,1.4703,1.477,1.4803,1.4908,1.4963,1.5022,1.5046,1.5108,1.5153,1.5208,1.5283,1.5331,1.5411,1.5485,1.552,1.5525,1.5617,1.5601,1.56,1.5605,1.5646,1.5649,1.5652,1.5615,1.5615,1.5615,0,0,1.4723,1.478,1.4833,1.4887,1.497,1.5019,1.5032,1.5123,1.5157,1.5234,1.5276,1.5331,1.5443,1.5498,1.554,1.5581,1.561,1.56,1.5599,1.5638,1.564,1.5643,1.5657,1.5662,1.5605,1.5605,1.5605,0,1.4706,1.4797,1.4857,1.4917,1.4962,1.5014,1.5068,1.5118,1.5218,1.5247,1.5252,1.5393,1.545,1.5537,1.5547,1.558,1.5597,1.559,1.5635,1.5638,1.5642,1.5656,1.5661,1.5603,1.5603,1.5603,1.5604,0,1.4772,1.4834,1.4868,1.4962,1.5011,1.5068,1.5136,1.5179,1.5212,1.5261,1.5339,1.5409,1.549,1.5514,1.5548,1.5606,1.5606,1.5622,1.5628,1.5642,1.5657,1.5663,1.5601,1.5601,1.5602,1.5602,0,0,1.4762,1.4889,1.49,1.4944,1.5038,1.5088,1.5148,1.5226,1.5261,1.5328,1.538,1.5473,1.5488,1.5536,1.5577,1.5611,1.5639,1.5623,1.5626,1.5623,1.5707,1.5694,1.57,1.5658,1.566,1.5661,1.57,0,1.4795,1.4903,1.4958,1.5043,1.5102,1.5152,1.5204,1.5267,1.5315,1.5372,1.5425,1.549,1.5505,1.5534,1.557,1.5627,1.5656,1.5626,1.5707,1.5709,1.5685,1.5707,1.5695,1.5728,1.5706,1.5707,1.5708,0,1.4847,1.4913,1.5003,1.5091,1.5118,1.5163,1.5239,1.5293,1.5367,1.5399,1.5452,1.5492,1.5557,1.5559,1.5649,1.5627,1.5664,1.5697,1.57,1.5709,1.5709,1.5717,1.574,1.5745,1.5718,1.5717,1.5716,0,1.483,1.4942,1.5011,1.5046,1.5151,1.5181,1.5226,1.5299,1.5343,1.541,1.5439,1.5512,1.5552,1.5609,1.5667,1.5663,1.5752,1.5758,1.578,1.5779,1.5797,1.5795,1.5825,1.5821,1.582,1.582,1.582,0,1.486,1.4913,1.5005,1.5046,1.5108,1.5171,1.523,1.5279,1.5343,1.5396,1.5444,1.5492,1.5567,1.5625,1.5671,1.5739,1.5757,1.5785,1.5796,1.578,1.5777,1.5805,1.5804,1.5822,1.5821,1.5821,1.5821,0,1.4852,1.4915,1.4993,1.5086,1.511,1.5151,1.523,1.5273,1.5323,1.5389,1.5408,1.5486,1.5557,1.5621,1.5715,1.5746,1.5815,1.583,1.579,1.5796,1.5814,1.5811,1.5864,1.5874,1.5862,1.5862,1.5862,0,1.4867,1.4909,1.5006,1.5045,1.5089,1.515,1.5195,1.5259,1.5303,1.539,1.5423,1.5497,1.5559,1.5669,1.5735,1.5807,1.5824,1.5837,1.5835,1.5817,1.5824,1.582,1.5825,1.5836,1.5836,1.5836,1.5836,0,1.4887,1.4916,1.4978,1.5052,1.5104,1.5165,1.5227,1.5256,1.5332,1.538,1.5452,1.55,1.5596,1.5669,1.5748,1.5795,1.5828,1.5836,1.5845,1.5829,1.5804,1.5817,1.5787,1.5835,1.5835,1.5835,1.5835,1.5835,1.4891,1.493,1.5005,1.5073,1.5126,1.5184,1.5228,1.5284,1.5345,1.5428,1.5462,1.5535,1.5608,1.5718,1.5765,1.5823,1.583,1.5843,1.5846,1.5848,1.5845,1.5794,1.5838,1.5838,1.5838,1.5838,1.5838,0,1.4912,1.4963,1.5025,1.511,1.5164,1.519,1.5261,1.5304,1.5368,1.5433,1.5493,1.5576,1.5647,1.5718,1.5793,1.5826,1.5843,1.5843,1.5842,1.5852,1.5835,1.5819,1.5828,1.5828,1.5828,1.5828,1.5828,1.5828,1.493,1.4998,1.5036,1.5132,1.5182,1.5254,1.5292,1.5346,1.5398,1.5488,1.5547,1.5593,1.566,1.574,1.5807,1.5826,1.5851,1.5847,1.587,1.5853,1.5853,1.5853,1.5839,1.5852,1.5852,1.5882,1.5883,1.5883]},{"header":{"parameterUnit":"m.s-1","parameterCategory":1,"la1":30.2991,"la2":30.254,"lo1":-89.0895,"lo2":-89.0444,"dy":0.0017,"dx":0.0017,"nx":28,"ny":28,"refTime":"2023-07-29T09:00:00:Z","depth":0,"parameterNumber":3,"parameterNumberName":"V-component_of_WINDS"},"data":[0,0,0,0,0,0,0,0,0,0,0,0,0,0,0,0,0,0,0,0,0,0,0,0,0,0,0,0,0,0,0,0,0,0,0,0,0,0,0,0,0,0,0,0,0,0,0,0,0,0,0,0,0,0,0,0,0,0,4.3326,4.3326,0,4.3291,4.3291,4.3291,4.3282,4.3283,4.3283,4.3283,4.3242,4.3241,4.3239,0,0,0,0,0,0,0,0,0,0,0,0,0,4.338,4.3379,4.3326,4.3326,4.3325,4.3292,4.3291,4.3291,4.3282,4.3283,4.3283,4.3283,4.3242,4.3241,4.3239,0,0,0,0,0,0,0,0,0,0,0,0,0,4.3352,4.3378,4.3326,4.3317,4.3316,4.3292,4.3291,4.329,4.3282,4.3283,4.3283,4.3283,4.3243,4.3241,4.3239,4.3219,0,0,4.3233,4.3232,0,0,0,0,0,0,0,0,4.3353,4.335,4.3319,4.3318,4.3317,4.3292,4.3295,4.3266,4.3282,4.3295,4.3283,4.3284,4.3258,4.3255,4.3247,4.3217,4.3215,4.3233,4.3231,4.3231,4.323,0,0,0,0,0,0,0,4.3355,4.3351,4.3312,4.3319,4.3317,4.3313,4.331,4.3289,4.3274,4.3294,4.3293,4.329,4.3257,4.3249,4.3246,4.3215,4.3233,4.3231,4.323,4.3229,4.3165,4.3164,0,0,0,0,0,0,4.336,4.3353,4.3313,4.3311,4.3336,4.3312,4.3308,4.3299,4.3275,4.3272,4.3289,4.3289,4.3252,4.3248,4.3245,4.3218,4.3231,4.3229,4.3228,4.3165,4.3164,4.3164,0,0,0,0,0,0,4.3361,4.3356,4.3315,4.3332,4.3326,4.3311,4.3301,4.3298,4.329,4.3271,4.3268,4.3284,4.3252,4.3247,4.3225,4.3217,4.3228,4.3226,4.3166,4.3165,4.3164,4.3167,0,0,0,0,0,0,4.3362,4.3357,4.3351,4.3332,4.3326,4.3298,4.33,4.3297,4.3288,4.3287,4.3266,4.3262,4.3252,4.3228,4.3223,4.3214,4.3224,4.3166,4.3165,4.3164,4.3168,4.3166,4.3165,0,0,0,0,0,4.3364,4.3352,4.335,4.3346,4.3318,4.3298,4.3294,4.3284,4.3287,4.328,4.3267,4.3263,4.3219,4.3226,4.3221,4.3211,4.3167,4.3166,4.3164,4.3168,4.3167,4.3166,0,0,0,0,0,0,4.3368,4.3349,4.3347,4.3329,4.3315,4.3297,4.3287,4.3283,4.3267,4.3268,4.3254,4.325,4.3228,4.3217,4.3226,4.3189,4.3193,4.319,4.3197,4.3196,4.3195,4.3197,4.3223,0,0,0,0,0,4.3367,4.3355,4.3338,4.3323,4.3317,4.3303,4.3294,4.3288,4.3272,4.3266,4.3252,4.3235,4.3218,4.3206,4.3189,4.3166,4.316,4.3156,4.3155,4.3154,4.3152,4.3137,4.3135,4.316,4.316,4.316,0,0,4.3364,4.3353,4.3345,4.3324,4.3312,4.3297,4.3298,4.3283,4.3271,4.3263,4.3242,4.3231,4.3211,4.3188,4.3178,4.3179,4.3144,4.3153,4.3153,4.3151,4.3136,4.3133,4.3131,4.3159,4.3159,4.316,0,0,4.3352,4.3342,4.3329,4.3317,4.3301,4.3292,4.3288,4.327,4.3263,4.3242,4.3235,4.322,4.319,4.3176,4.3165,4.3146,4.314,4.314,4.3134,4.312,4.3118,4.3116,4.3107,4.3105,4.3138,4.3138,4.3138,0,4.335,4.333,4.3321,4.3306,4.3296,4.329,4.3274,4.3263,4.3241,4.3233,4.3235,4.3197,4.3183,4.3156,4.3152,4.3143,4.3137,4.3142,4.3119,4.3117,4.3115,4.3107,4.3104,4.3138,4.3138,4.3138,4.3138,0,4.3327,4.3313,4.3303,4.3284,4.3272,4.3257,4.3245,4.3234,4.3228,4.3218,4.3195,4.3179,4.3157,4.3151,4.3144,4.3122,4.3123,4.3122,4.3125,4.3113,4.3105,4.3102,4.3138,4.3138,4.3138,4.3138,0,0,4.3316,4.3292,4.3289,4.3279,4.326,4.3248,4.3231,4.3212,4.3202,4.3186,4.317,4.3145,4.3144,4.3131,4.3123,4.3111,4.3095,4.3111,4.311,4.3107,4.3066,4.3066,4.3063,4.3091,4.3091,4.309,4.3067,0,4.33,4.3273,4.3265,4.324,4.3226,4.3219,4.3204,4.3189,4.3179,4.3164,4.3151,4.3133,4.3134,4.3126,4.3114,4.3099,4.3086,4.3101,4.3074,4.3073,4.3079,4.3059,4.3059,4.3039,4.3064,4.3064,4.3064,0,4.3278,4.3264,4.3239,4.3221,4.3214,4.3201,4.3182,4.3168,4.315,4.3143,4.3129,4.3122,4.3102,4.3106,4.3077,4.3087,4.3075,4.3066,4.3065,4.3062,4.3067,4.3053,4.3032,4.3029,4.3059,4.3059,4.3059,0,4.3271,4.3246,4.3227,4.3219,4.3198,4.3188,4.3178,4.3161,4.315,4.3132,4.3124,4.3104,4.3092,4.3075,4.3062,4.3067,4.3033,4.3037,4.3024,4.3025,4.3017,4.3017,4.2992,4.3011,4.3011,4.3011,4.3011,0,4.3254,4.3239,4.3224,4.3212,4.3193,4.3183,4.3164,4.3154,4.3138,4.3123,4.3115,4.31,4.3084,4.3066,4.3055,4.3031,4.3026,4.3018,4.3015,4.3018,4.3019,4.3009,4.301,4.301,4.3011,4.3011,4.3011,0,4.3243,4.3233,4.3212,4.3193,4.3188,4.3175,4.3158,4.3145,4.3135,4.3115,4.3109,4.3092,4.307,4.3055,4.3027,4.3019,4.2993,4.2991,4.2999,4.2998,4.2986,4.2987,4.2953,4.2947,4.2971,4.2971,4.2971,0,4.3232,4.322,4.3201,4.3191,4.3181,4.3165,4.3154,4.3142,4.313,4.3108,4.3097,4.3075,4.3057,4.3022,4.3006,4.2983,4.298,4.2969,4.2976,4.2979,4.2977,4.2978,4.2976,4.2968,4.2968,4.2968,4.2967,0,4.3214,4.3209,4.3194,4.3177,4.3163,4.3149,4.3134,4.3125,4.311,4.3097,4.3075,4.3062,4.3033,4.301,4.2986,4.2973,4.2967,4.2966,4.2961,4.2964,4.2969,4.2964,4.2995,4.2966,4.2966,4.2966,4.2966,4.2966,4.3202,4.319,4.3175,4.3157,4.3145,4.3131,4.3118,4.3106,4.3089,4.3066,4.306,4.3037,4.3017,4.2984,4.2971,4.2951,4.2952,4.2946,4.2944,4.2942,4.2942,4.2973,4.2946,4.2947,4.2947,4.2947,4.2947,0,4.3182,4.3171,4.3156,4.3136,4.3121,4.3119,4.3102,4.3089,4.307,4.3053,4.3036,4.301,4.2988,4.2969,4.2946,4.2933,4.2929,4.2927,4.2927,4.2924,4.2943,4.2949,4.293,4.293,4.293,4.293,4.293,4.293,4.317,4.315,4.3143,4.3116,4.3105,4.3085,4.3075,4.306,4.3047,4.3019,4.3002,4.299,4.2972,4.2947,4.2925,4.292,4.2911,4.2909,4.2903,4.2921,4.2923,4.2924,4.2929,4.2907,4.2907,4.2885,4.2884,4.2884]}]]